Location: Hope
(40.9110°N, 74.9680°W)
Time: 03:53:04
(UTC-05:00)

FORTE - Pass Details

Date: 06 December 2021
Orbit: 785 x 822 km, 70.0° (Epoch: 22 January)

Event Time Altitude Azimuth Distance (km) Brightness Sun altitude
Rises 05:05:50 0° 185° (S) 3,259 10.3 -22.8°
Reaches altitude 10° 05:08:18 10° 179° (S) 2,336 9.6 -22.4°
Maximum altitude 05:13:20 44° 108° (ESE) 1,076 8.2 -21.4°
Drops below altitude 10° 05:18:26 10° 38° (NE) 2,365 9.8 -20.5°
Sets 05:20:57 0° 32° (NNE) 3,304 10.5 -20.0°
